Regional Weather Roundup
Issued by NWS

Home | Current Version | Previous Version | Graphics & Text | Print | Product List | Glossary On
Versions: 1 2 3 4 5 6 7 8 9 10 11 12 13 14 15 16 17 18 19 20 21 22 23 24 25 26 27 28 29 30 31 32 33 34 35 36 37 38 39 40 41 42 43 44 45 46 47 48 49 50
000
ASUS44 KMEG 152300
RWRTN
TENNESSEE HOURLY STATE WEATHER ROUNDUP
NATIONAL WEATHER SERVICE MEMPHIS TN
600 PM CDT MON SEP 15 2014

TNZ002-004-019-021-049-052-054-088>092-160000-
WEST TENNESSEE

CITY           SKY/WX    TMP DP  RH WIND       PRES   REMARKS
MEMPHIS INTL   CLOUDY    79  63  57 W3        30.09F
NWS MEMPHIS      N/A     78 N/A N/A MISG        N/A
JACKSON        CLOUDY    75  65  70 CALM      30.10S
DYERSBURG      PTSUNNY   73  57  56 CALM      30.10F
PARIS          SUNNY     70  61  73 SW3       30.10S
SAVANNAH       SUNNY     79  66  65 CALM      30.11R
$$

TNZ008-025-027-028-033-062-065-066-160000-
NORTH MIDDLE TENNESSEE

CITY           SKY/WX    TMP DP  RH WIND       PRES   REMARKS
NASHVILLE      CLOUDY    72  63  73 CALM      30.12S
CLARKSVILLE    CLOUDY    71  62  73 S6        30.10S
COOKEVILLE     PTCLDY    72  66  83 CALM      30.13R
CROSSVILLE     CLOUDY    69  63  81 CALM      30.16F
$$

TNZ061-075-076-078-094-096-097-160000-
SOUTH MIDDLE TENNESSEE

CITY           SKY/WX    TMP DP  RH WIND       PRES   REMARKS
SHELBYVILLE    CLEAR     77  66  69 NE3       30.12R
$$

TNZ017-018-042-046-047-160000-
NORTHEAST TENNESSEE

CITY           SKY/WX    TMP DP  RH WIND       PRES   REMARKS
TRI CITIES     CLOUDY    73  62  68 W5        30.15R
ELIZABETHTON   CLEAR     72  63  73 CALM      30.16S
$$

TNZ012-013-036-069-073-074-160000-
CENTRAL EAST TENNESSEE

CITY           SKY/WX    TMP DP  RH WIND       PRES   REMARKS
KNOXVILLE      CLOUDY    75  67  76 CALM      30.12S
OAK RIDGE      CLOUDY    73  68  84 CALM      30.14F
$$

TNZ083-085-099-160000-
SOUTHEAST TENNESSEE

CITY           SKY/WX    TMP DP  RH WIND       PRES   REMARKS
CHATTANOOGA    MOCLDY    78  69  73 SE5       30.12R
$$

SKY/WX REPORTED AS FAIR MEANS FEW OR NO CLOUDS BELOW
12 THOUSAND FEET.




USA.gov is the U.S. government's official web portal to all federal, state and local government web resources and services.